Aniak, AK

2:18 AM AKST on February 23, 2017 (GMT -0900)
Aniak

Weather History for PANI - March, 2013

Change the Weather History Date:

Tuesday, March 26, 2013

  Actual Average Record
Temperature  
Mean Temperature -14 °F -  
Max Temperature 1 °F 21 °F 35 °F (1999)
Min Temperature -29 °F 5 °F -29 °F (2013)
Degree Days  
Heating Degree Days 79    
Moisture  
Dew Point -19 °F    
Average Humidity 55    
Maximum Humidity 100    
Minimum Humidity 28    
Precipitation  
Precipitation 0.00 in - - ()
Sea Level Pressure  
Sea Level Pressure 30.22 in    
Wind  
Wind Speed 2 mph (WSW)    
Max Wind Speed 9 mph    
Max Gust Speed -    
Visibility 10 miles    
Events      
Averages and records for this station are not official NWS values.
T = Trace of Precipitation, MM = Missing Value Source: NWS Daily Summary

Daily Weather History Graph

Daily Weather History Graph

Search for Another Location

Airport or City:

Trip Planner

Search our weather history database for the weather conditions in past years. The results will help you decide how hot, cold, wet, or windy it might be!

Date:

Astronomy

Mar. 26, 2013 Rise Set
Actual Time 8:18 AM AKDT 9:10 PM AKDT
Civil Twilight 7:34 AM AKDT 9:54 PM AKDT
Nautical Twilight 6:39 AM AKDT 10:49 PM AKDT
Astronomical Twilight 5:37 AM AKDT 11:53 PM AKDT
Moon 9:08 PM AKDT (3/26) 7:43 AM AKDT (3/26)
Length of Visible Light 14h 20m
Length of Day
12h 51m
Full, 100% of the Moon is Illuminated
Mar 26
Full
Mar 27
Full
Apr 2
Last Quarter
Apr 10
New
Apr 18
First Quarter

Hourly Weather History & Observations

Time (AKDT) Temp. Windchill Dew Point Humidity Pressure Visibility Wind Dir Wind Speed Gust Speed Precip Events Conditions
12:16 AM -16.6 °F -29.3 °F - N/A% 30.13 in 10.0 mi WNW 4.6 mph - N/A   Clear
12:36 AM -14.8 °F -24.8 °F - N/A% 30.13 in 10.0 mi West 3.5 mph - N/A   Clear
12:56 AM -14.8 °F -24.8 °F -29.2 °F 48% 30.13 in 10.0 mi WNW 3.5 mph - N/A   Clear
1:16 AM -16.6 °F - -27.4 °F 58% 30.14 in 10.0 mi Calm Calm - N/A   Clear
1:36 AM -16.6 °F - -29.2 °F 53% 30.14 in 10.0 mi Calm Calm - N/A   Clear
1:56 AM -18.4 °F - -29.2 °F 58% 30.15 in 10.0 mi Calm Calm - N/A   Clear
2:16 AM -18.4 °F - - N/A% 30.16 in 10.0 mi Calm Calm - N/A   Clear
2:36 AM -18.4 °F - -23.8 °F 76% 30.16 in 10.0 mi Calm Calm - N/A   Clear
2:56 AM -18.4 °F - -27.4 °F 63% 30.17 in 10.0 mi Calm Calm - N/A   Clear
3:16 AM -20.2 °F - - N/A% 30.17 in 10.0 mi Calm Calm - N/A   Clear
3:36 AM -20.2 °F - - N/A% 30.17 in 10.0 mi Calm Calm - N/A   Partly Cloudy
3:56 AM -22.0 °F - - N/A% 30.18 in 10.0 mi Calm Calm - N/A   Mostly Cloudy
4:16 AM -20.2 °F - - N/A% 30.18 in 5.0 mi Calm Calm - N/A   Overcast
4:36 AM -20.2 °F - -25.6 °F 76% 30.19 in 8.0 mi Calm Calm - N/A   Overcast
4:56 AM -20.2 °F - -25.6 °F 76% 30.18 in 8.0 mi Calm Calm - N/A   Overcast
5:16 AM -23.8 °F - - N/A% 30.19 in 10.0 mi Calm Calm - N/A   Mostly Cloudy
5:36 AM -22.0 °F - - N/A% 30.19 in 10.0 mi Calm Calm - N/A   Clear
5:56 AM -20.2 °F - -27.4 °F 69% 30.19 in 10.0 mi Calm Calm - N/A   Clear
6:16 AM -23.8 °F - - N/A% 30.19 in 10.0 mi Calm Calm - N/A   Clear
6:36 AM -23.8 °F - - N/A% 30.18 in 10.0 mi Calm Calm - N/A   Clear
6:56 AM -25.6 °F - - N/A% 30.19 in 10.0 mi Calm Calm - N/A   Scattered Clouds
7:16 AM -25.6 °F - - N/A% 30.19 in 9.0 mi Calm Calm - N/A   Scattered Clouds
7:36 AM -23.8 °F - - N/A% 30.19 in 10.0 mi Calm Calm - N/A   Clear
7:56 AM -25.6 °F - - N/A% 30.20 in 10.0 mi Calm Calm - N/A   Clear
8:16 AM -23.8 °F - - N/A% 30.20 in 10.0 mi Calm Calm - N/A   Clear
8:36 AM -27.4 °F - - N/A% 30.21 in 10.0 mi Calm Calm - N/A   Clear
8:56 AM -27.4 °F - - N/A% 30.21 in 10.0 mi Calm Calm - N/A   Clear
9:16 AM -25.6 °F - - N/A% 30.21 in 2.5 mi Calm Calm - N/A   Clear
9:36 AM -23.8 °F - -23.8 °F 100% 30.21 in 10.0 mi Calm Calm - N/A   Scattered Clouds
9:56 AM -22.0 °F - - N/A% 30.22 in 7.0 mi Calm Calm - N/A   Mostly Cloudy
10:16 AM -18.4 °F - - N/A% 30.22 in 5.0 mi Calm Calm - N/A   Scattered Clouds
10:36 AM -16.6 °F -29.3 °F - N/A% 30.23 in 10.0 mi ESE 4.6 mph - N/A   Clear
10:56 AM -14.8 °F - - N/A% 30.23 in 10.0 mi Calm Calm - N/A   Scattered Clouds
11:16 AM -11.2 °F -23.0 °F - N/A% 30.24 in 10.0 mi SW 4.6 mph - N/A   Mostly Cloudy
11:36 AM -9.4 °F -20.9 °F - N/A% 30.24 in 10.0 mi WSW 4.6 mph - N/A   Overcast
11:56 AM -9.4 °F -22.7 °F -27.4 °F 41% 30.25 in 10.0 mi WSW 5.8 mph - N/A   Overcast
12:16 PM -7.6 °F -20.6 °F -18.4 °F 59% 30.25 in 10.0 mi WSW 5.8 mph - N/A   Overcast
12:36 PM -7.6 °F -22.1 °F -16.6 °F 65% 30.25 in 10.0 mi WSW 6.9 mph - N/A   Overcast
12:56 PM -5.8 °F -14.5 °F -14.8 °F 65% 30.26 in 10.0 mi South 3.5 mph - N/A   Overcast
1:16 PM -4.0 °F -17.8 °F -13.0 °F 65% 30.26 in 10.0 mi WSW 6.9 mph - N/A   Overcast
1:36 PM -4.0 °F -20.2 °F -16.6 °F 55% 30.25 in 10.0 mi West 9.2 mph - N/A   Overcast
1:56 PM -4.0 °F -17.8 °F -11.2 °F 71% 30.25 in 10.0 mi SW 6.9 mph - N/A   Mostly Cloudy
2:16 PM -2.2 °F -15.6 °F -16.6 °F 50% 30.25 in 10.0 mi West 6.9 mph - N/A   Partly Cloudy
2:36 PM -2.2 °F -14.2 °F -11.2 °F 66% 30.25 in 10.0 mi West 5.8 mph - N/A   Clear
2:56 PM -2.2 °F -15.6 °F -14.8 °F 55% 30.25 in 10.0 mi WSW 6.9 mph - N/A   Clear
3:16 PM -0.4 °F - -14.8 °F 51% 30.25 in 10.0 mi Calm Calm - N/A   Clear
3:36 PM -0.4 °F -13.4 °F -13.0 °F 55% 30.25 in 10.0 mi West 6.9 mph - N/A   Clear
3:56 PM -0.4 °F -10.4 °F -16.6 °F 46% 30.25 in 10.0 mi SW 4.6 mph - N/A   Clear
4:16 PM 1.4 °F -6.2 °F -9.4 °F 61% 30.25 in 10.0 mi SSW 3.5 mph - N/A   Clear
4:36 PM 1.4 °F -8.3 °F -18.4 °F 39% 30.25 in 10.0 mi WSW 4.6 mph - N/A   Clear
4:56 PM 1.4 °F - -9.4 °F 61% 30.25 in 10.0 mi Calm Calm - N/A   Clear
5:16 PM 1.4 °F -6.2 °F -18.4 °F 39% 30.25 in 10.0 mi SSE 3.5 mph - N/A   Clear
5:36 PM 1.4 °F -11.3 °F -14.8 °F 47% 30.26 in 10.0 mi WNW 6.9 mph - N/A   Clear
5:56 PM 1.4 °F -8.3 °F -14.8 °F 47% 30.26 in 10.0 mi WSW 4.6 mph - N/A   Clear
6:16 PM 1.4 °F -6.2 °F -16.6 °F 43% 30.25 in 10.0 mi WSW 3.5 mph - N/A   Clear
6:36 PM 1.4 °F - -16.6 °F 43% 30.25 in 10.0 mi Calm Calm - N/A   Clear
6:56 PM 1.4 °F -6.2 °F -14.8 °F 47% 30.25 in 10.0 mi WNW 3.5 mph - N/A   Clear
7:16 PM 1.4 °F - -14.8 °F 47% 30.24 in 10.0 mi Calm Calm - N/A   Clear
7:36 PM 1.4 °F - -13.0 °F 51% 30.24 in 10.0 mi Calm Calm - N/A   Clear
7:56 PM 1.4 °F -8.3 °F -16.6 °F 43% 30.24 in 10.0 mi SSE 4.6 mph - N/A   Clear
8:16 PM -0.4 °F - -14.8 °F 51% 30.24 in 10.0 mi Calm Calm - N/A   Clear
8:36 PM -0.4 °F - -16.6 °F 46% 30.25 in 10.0 mi Calm Calm - N/A   Clear
8:56 PM -0.4 °F - -16.6 °F 46% 30.25 in 10.0 mi Calm Calm - N/A   Clear
9:16 PM -2.2 °F - -18.4 °F 46% 30.25 in 10.0 mi Calm Calm - N/A   Clear
9:36 PM -4.0 °F - -18.4 °F 50% 30.26 in 9.0 mi Calm Calm - N/A   Clear
9:56 PM -5.8 °F - -16.6 °F 60% 30.26 in 10.0 mi Calm Calm - N/A   Clear
10:16 PM -7.6 °F - -25.6 °F 41% 30.25 in 10.0 mi Calm Calm - N/A   Clear
10:36 PM -9.4 °F - -23.8 °F 49% 30.25 in 10.0 mi Calm Calm - N/A   Clear
10:56 PM -11.2 °F - -22.0 °F 59% 30.25 in 10.0 mi Calm Calm - N/A   Clear
11:16 PM -11.2 °F - -25.6 °F 49% 30.24 in 10.0 mi Calm Calm - N/A   Clear
11:36 PM -11.2 °F -20.6 °F -20.2 °F 64% 30.24 in 10.0 mi SE 3.5 mph - N/A   Clear
11:56 PM -13.0 °F -22.7 °F -25.6 °F 53% 30.24 in 10.0 mi ESE 3.5 mph - N/A   Clear